Weather History for Dalton, GA

Change the Weather History Date:

Wednesday, December 12, 2012

  Actual Average Record
Temperature  
Mean Temperature 40 °F -  
Max Temperature 46 °F 52 °F 68 °F (1985)
Min Temperature 33 °F 34 °F 3 °F (1962)
Degree Days  
Heating Degree Days 26    
Moisture  
Dew Point 32 °F    
Average Humidity 79    
Maximum Humidity 93    
Minimum Humidity 61    
Precipitation  
Precipitation 0.00 in - - ()
Sea Level Pressure  
Sea Level Pressure 30.23 in    
Wind  
Wind Speed 8 mph (NNW)    
Max Wind Speed 13 mph    
Max Gust Speed 16 mph    
Visibility 10 miles    
Events      
Averages and records for this station are not official NWS values.
T = Trace of Precipitation, MM = Missing Value Source: NWS Daily Summary

Daily Weather History Graph

Daily Weather History Graph

Search for Another Location

Airport:

Trip Planner

Search our weather history database for the weather conditions in past years. The results will help you decide how hot, cold, wet, or windy it might be!

Date:

Astronomy

Dec. 12, 2012 Rise Set
Actual Time 7:37 AM EST 5:29 PM EST
Civil Twilight 7:09 AM EST 5:57 PM EST
Nautical Twilight 6:38 AM EST 6:28 PM EST
Astronomical Twilight 6:07 AM EST 6:59 PM EST
Moon 6:41 AM EST (12/12) 5:04 PM EST (12/12)
Length of Visible Light 10h 47m
Length of Day
9h 51m
Waning Crescent, 1% of the Moon is Illuminated
Dec 12
Waning Crescent
Dec 13
New
Dec 20
First Quarter
Dec 28
Full
Jan 4
Last Quarter

Hourly Weather History & Observations

Time (EST) Temp. Windchill Dew Point Humidity Pressure Visibility Wind Dir Wind Speed Gust Speed Precip Events Conditions
12:15 AM 35.6 °F 29.2 °F 32.0 °F 87% 30.18 in 10.0 mi NNW 8.1 mph - N/A   Clear
12:35 AM 35.6 °F 29.2 °F 32.0 °F 87% 30.19 in 10.0 mi NNW 8.1 mph - N/A   Clear
12:55 AM 35.6 °F 28.6 °F 32.0 °F 87% 30.19 in 10.0 mi North 9.2 mph - N/A   Scattered Clouds
1:15 AM 35.6 °F 28.6 °F 32.0 °F 87% 30.18 in 10.0 mi NNW 9.2 mph - N/A   Scattered Clouds
1:35 AM 33.8 °F 27.0 °F 32.0 °F 93% 30.19 in 10.0 mi North 8.1 mph 16.1 mph N/A   Scattered Clouds
1:55 AM 33.8 °F 27.0 °F 32.0 °F 93% 30.18 in 10.0 mi North 8.1 mph - N/A   Clear
2:15 AM 33.8 °F 26.4 °F 32.0 °F 93% 30.19 in 10.0 mi North 9.2 mph - N/A   Scattered Clouds
2:35 AM 33.8 °F 26.4 °F 32.0 °F 93% 30.19 in 10.0 mi North 9.2 mph - N/A   Scattered Clouds
2:55 AM 33.8 °F 25.8 °F 32.0 °F 93% 30.19 in 10.0 mi NNW 10.4 mph - N/A   Mostly Cloudy
3:15 AM 33.8 °F 26.4 °F 32.0 °F 93% 30.20 in 10.0 mi NNW 9.2 mph - N/A   Scattered Clouds
3:35 AM 33.8 °F 26.4 °F 32.0 °F 93% 30.20 in 10.0 mi NNW 9.2 mph - N/A   Clear
3:55 AM 33.8 °F 26.4 °F 32.0 °F 93% 30.21 in 10.0 mi North 9.2 mph - N/A   Mostly Cloudy
4:15 AM 33.8 °F 26.4 °F 32.0 °F 93% 30.20 in 10.0 mi NNW 9.2 mph - N/A   Overcast
4:35 AM 33.8 °F 24.8 °F 32.0 °F 93% 30.20 in 10.0 mi NNW 12.7 mph - N/A   Overcast
4:55 AM 33.8 °F 25.3 °F 32.0 °F 93% 30.20 in 10.0 mi NNW 11.5 mph - N/A   Overcast
5:15 AM 33.8 °F 25.8 °F 32.0 °F 93% 30.21 in 10.0 mi NNW 10.4 mph - N/A   Mostly Cloudy
5:35 AM 33.8 °F 26.4 °F 32.0 °F 93% 30.21 in 10.0 mi North 9.2 mph - N/A   Overcast
5:55 AM 33.8 °F 27.0 °F 32.0 °F 93% 30.21 in 10.0 mi North 8.1 mph - N/A   Scattered Clouds
6:15 AM 33.8 °F 25.8 °F 32.0 °F 93% 30.20 in 10.0 mi NNW 10.4 mph - N/A   Clear
6:35 AM 33.8 °F 26.4 °F 32.0 °F 93% 30.20 in 10.0 mi North 9.2 mph - N/A   Scattered Clouds
6:55 AM 33.8 °F 28.6 °F 32.0 °F 93% 30.22 in 10.0 mi NNW 5.8 mph - N/A   Clear
7:15 AM 33.8 °F 26.4 °F 32.0 °F 93% 30.22 in 10.0 mi NNW 9.2 mph - N/A   Clear
7:35 AM 33.8 °F 27.7 °F 32.0 °F 93% 30.22 in 10.0 mi NNW 6.9 mph - N/A   Clear
7:55 AM 33.8 °F 27.0 °F 32.0 °F 93% 30.23 in 10.0 mi NNW 8.1 mph - N/A   Clear
8:15 AM 33.8 °F 28.6 °F 32.0 °F 93% 30.24 in 10.0 mi NNW 5.8 mph - N/A   Clear
8:35 AM 33.8 °F 26.4 °F 32.0 °F 93% 30.24 in 10.0 mi NNW 9.2 mph - N/A   Clear
8:55 AM 33.8 °F 25.3 °F 32.0 °F 93% 30.25 in 10.0 mi North 11.5 mph 16.1 mph N/A   Scattered Clouds
9:15 AM 33.8 °F 27.7 °F 32.0 °F 93% 30.25 in 10.0 mi North 6.9 mph - N/A   Clear
9:35 AM 35.6 °F 29.2 °F 32.0 °F 87% 30.25 in 10.0 mi North 8.1 mph - N/A   Scattered Clouds
9:55 AM 37.4 °F 30.8 °F 32.0 °F 81% 30.25 in 10.0 mi North 9.2 mph - N/A   Scattered Clouds
10:15 AM 37.4 °F 31.4 °F 32.0 °F 81% 30.26 in 10.0 mi North 8.1 mph - N/A   Scattered Clouds
10:35 AM 39.2 °F 33.0 °F 32.0 °F 75% 30.26 in 10.0 mi North 9.2 mph - N/A   Scattered Clouds
10:55 AM 37.4 °F 29.8 °F 32.0 °F 81% 30.25 in 10.0 mi NNW 11.5 mph 16.1 mph N/A   Clear
11:15 AM 39.2 °F 33.6 °F 32.0 °F 75% 30.26 in 10.0 mi North 8.1 mph - N/A   Clear
11:35 AM 41.0 °F 36.4 °F 32.0 °F 70% 30.25 in 10.0 mi North 6.9 mph - N/A   Clear
11:55 AM 41.0 °F 35.8 °F 32.0 °F 70% 30.25 in 10.0 mi North 8.1 mph - N/A   Clear
12:15 PM 41.0 °F 34.3 °F 32.0 °F 70% 30.24 in 10.0 mi NNW 11.5 mph - N/A   Clear
12:35 PM 41.0 °F 35.2 °F 32.0 °F 70% 30.24 in 10.0 mi North 9.2 mph - N/A   Clear
12:55 PM 42.8 °F 37.0 °F 33.8 °F 70% 30.24 in 10.0 mi NNW 10.4 mph - N/A   Clear
1:15 PM 44.6 °F 38.8 °F 33.8 °F 66% 30.23 in 10.0 mi North 11.5 mph - N/A   Clear
1:35 PM 44.6 °F 40.2 °F 33.8 °F 66% 30.22 in 10.0 mi North 8.1 mph - N/A   Clear
1:55 PM 44.6 °F 39.2 °F 33.8 °F 66% 30.21 in 10.0 mi NW 10.4 mph - N/A   Clear
2:15 PM 46.4 °F 42.4 °F 33.8 °F 62% 30.21 in 10.0 mi NW 8.1 mph - N/A   Clear
2:35 PM 46.4 °F 41.9 °F 33.8 °F 62% 30.21 in 10.0 mi NNW 9.2 mph - N/A   Clear
2:55 PM 46.4 °F 41.1 °F 33.8 °F 62% 30.21 in 10.0 mi NNW 11.5 mph - N/A   Clear
3:15 PM 46.4 °F 41.9 °F 33.8 °F 62% 30.22 in 10.0 mi NNW 9.2 mph - N/A   Clear
3:35 PM 46.4 °F 41.5 °F 33.8 °F 62% 30.22 in 10.0 mi North 10.4 mph - N/A   Clear
3:55 PM 46.4 °F 41.9 °F 33.8 °F 62% 30.22 in 10.0 mi North 9.2 mph - N/A   Clear
4:15 PM 46.4 °F 42.4 °F 33.8 °F 62% 30.23 in 10.0 mi North 8.1 mph - N/A   Clear
4:35 PM 46.4 °F 43.5 °F 33.8 °F 62% 30.23 in 10.0 mi North 5.8 mph - N/A   Scattered Clouds
4:55 PM 46.4 °F 41.9 °F 33.8 °F 62% 30.24 in 10.0 mi North 9.2 mph - N/A   Scattered Clouds
5:15 PM 44.6 °F 42.2 °F 33.8 °F 66% 30.24 in 10.0 mi North 4.6 mph - N/A   Clear
5:35 PM 44.6 °F 40.7 °F 32.0 °F 61% 30.24 in 10.0 mi North 6.9 mph - N/A   Clear
5:55 PM 44.6 °F 40.7 °F 32.0 °F 61% 30.24 in 10.0 mi NNW 6.9 mph - N/A   Clear
6:15 PM 42.8 °F 38.0 °F 32.0 °F 66% 30.24 in 10.0 mi North 8.1 mph - N/A   Clear
6:35 PM 42.8 °F 37.5 °F 32.0 °F 66% 30.25 in 10.0 mi NNW 9.2 mph - N/A   Clear
7:15 PM 42.8 °F 38.0 °F 32.0 °F 66% 30.26 in 10.0 mi North 8.1 mph - N/A   Clear
7:35 PM 42.8 °F 38.0 °F 32.0 °F 66% 30.26 in 10.0 mi North 8.1 mph - N/A   Clear
7:55 PM 41.0 °F 35.8 °F 32.0 °F 70% 30.26 in 10.0 mi NNW 8.1 mph - N/A   Clear
8:15 PM 41.0 °F 35.8 °F 32.0 °F 70% 30.25 in 10.0 mi NNW 8.1 mph - N/A   Scattered Clouds
8:35 PM 41.0 °F 37.1 °F 32.0 °F 70% 30.25 in 10.0 mi NNW 5.8 mph - N/A   Clear
8:55 PM 39.2 °F 35.0 °F 32.0 °F 75% 30.25 in 10.0 mi NNW 5.8 mph - N/A   Clear
9:15 PM 37.4 °F 31.4 °F 32.0 °F 81% 30.24 in 10.0 mi NNW 8.1 mph - N/A   Clear
9:35 PM 37.4 °F 32.8 °F 32.0 °F 81% 30.23 in 10.0 mi NNW 5.8 mph - N/A   Clear
9:55 PM 37.4 °F 33.8 °F 32.0 °F 81% 30.25 in 10.0 mi NNW 4.6 mph - N/A   Clear
10:15 PM 37.4 °F 32.8 °F 32.0 °F 81% 30.25 in 10.0 mi North 5.8 mph - N/A   Clear
10:35 PM 37.4 °F 31.4 °F 32.0 °F 81% 30.25 in 10.0 mi NNW 8.1 mph - N/A   Clear
10:55 PM 37.4 °F 34.9 °F 32.0 °F 81% 30.27 in 10.0 mi WNW 3.5 mph - N/A   Clear
11:15 PM 37.4 °F - 32.0 °F 81% 30.28 in 10.0 mi Calm Calm - N/A   Scattered Clouds
11:35 PM 35.6 °F - 32.0 °F 87% 30.25 in 10.0 mi Calm Calm - N/A   Scattered Clouds
11:55 PM 35.6 °F - 32.0 °F 87% 30.26 in 10.0 mi Calm Calm - N/A   Scattered Clouds